Погода в Верхних Куларках

Россия / Забайкальский край     52°49′56″N   118°56′47″E
темп.,
°C
ветер,
м/с
пор.,
м/с
влажн.,
%
обл.,
%
осадки,
мм/ч
давл.,
гПа
погр.,
м
6 марта, сб
сб600:00−28ююз22850 0.0 104121
03:00−28ююз22870 0.0 104120
06:00−29ююз12900 0.0 104019
09:00−27юз119032 0.0 103845
12:00−18зюз128085 0.0 1033308
15:00−15з128066 0.0 1029415
18:00−15зюз1289100 0.0 1027202
21:00−16юз1297100 0.4 102761
7 марта, вс
вс700:00−20юз1299100 0.1 102630
03:00−21юз129899 0.1 102724
06:00−23юз2210083 0.0 102720
09:00−22юз2210084 0.1 102881
12:00−15зюз238684 0.0 1026301
15:00−10юз238061 0.0 1024384
18:00−10ююз12890 0.0 102241
21:00−13ю22854 0.0 102320
8 марта, пн
пн800:00−14ююз228830 0.0 102220
03:00−14ююз229525 0.0 102020
06:00−15ююз229029 0.0 101921
09:00−12юз229164 0.0 101888
12:00−8юз3588100 0.0 1014393
15:00−6зюз2589100 0.0 1012521
18:00−6ююз3593100 0.1 1010405
21:00−7юз2397100 0.8 1011138
9 марта, вт
вт900:00−8сз31289100 0.1 1012663
03:00−13сз21176100 0.1 1016424
06:00−18сз12820 0.0 102223
09:00−15зюз128210 0.0 102859
12:00−9з23730 0.0 1028449
15:00−6зюз24680 0.0 1028970
18:00−8ююз258942 0.0 1026280
21:00−12ююз228471 0.0 102724
10 марта, ср
ср1000:00−12ю2285100 0.0 102627
03:00−12ююз2383100 0.0 102368
06:00−13юз2581100 0.0 1022136
09:00−12юз2781100 0.0 1021352
12:00−7зюз258530 0.0 1019467
15:00−2з596763 0.1 10191825
18:00−4зсз2779100 0.2 1021293
21:00−11ююз118568 0.2 102521